Regional Weather Roundup
Issued by NWS

Home | Current Version | Previous Version | Text Only | Print | Product List | Glossary Off
Versions: 1 2 3 4 5 6 7 8 9 10 11 12 13 14 15 16 17 18 19 20 21 22 23 24 25 26 27 28 29 30 31 32 33 34 35 36 37 38 39 40 41 42 43 44 45 46 47 48 49 50

000
ASUS43 KLOT 191221
RWRIL

ILLINOIS REGIONAL WEATHER ROUNDUP
NATIONAL WEATHER SERVICE CHICAGO/ROMEOVILLE IL
700 AM CDT SUN APR 19 2015

NOTE: "FAIR" INDICATES FEW OR NO CLOUDS BELOW 12,000 FEET WITH NO
SIGNIFICANT WEATHER AND/OR OBSTRUCTIONS TO VISIBILITY.

* THESE STATIONS ARE NOT UNDER NWS QUALITY CONTROL. THEY ALSO MAY NOT
  REPORT WEATHER SUCH AS PRECIPITATION OR FOG.

ILZ001-002-007-009-015-016-024-191300-
NORTHWEST ILLINOIS

CITY           SKY/WX    TMP DP  RH WIND       PRES   REMARKS
MOLINE         MOCLDY    53  42  66 E7        29.77F
6HR MIN TEMP:  50; 6HR MAX TEMP:  56;

STERLING*      MOCLDY    55  39  54 E10       29.80F
SAVANNA*       CLOUDY    55  38  51 NE3       29.81S
$$

ILZ003-004-008-010-011-017-018-191300-
NORTH CENTRAL ILLINOIS

CITY           SKY/WX    TMP DP  RH WIND       PRES   REMARKS
ROCKFORD       MOCLDY    53  30  41 E9        29.86S
6HR MIN TEMP:  52; 6HR MAX TEMP:  56;

FREEPORT*      CLOUDY    51  33  49 E12       29.84F
ROCHELLE*      MOCLDY    52  34  50 E9        29.83F
DE KALB*       PTCLDY    49  32  52 E10       29.85S
PERU*          PTCLDY    56  39  54 E12       29.81S
$$

ILZ005-006-012>014-019>023-191300-
NORTHEAST ILLINOIS

CITY           SKY/WX    TMP DP  RH WIND       PRES   REMARKS
CHICAGO-OHARE  MOCLDY    52  33  48 E8        29.85F
6HR MIN TEMP:  52; 6HR MAX TEMP:  55;

CHICAGO-MIDWAY MOCLDY    55  34  45 E8        29.86F
6HR MIN TEMP:  54; 6HR MAX TEMP:  57;

AURORA         PTCLDY    53  34  48 E10       29.84F
6HR MIN TEMP:  50; 6HR MAX TEMP:  56;

LANSING*       PTCLDY    53  32  45 E9        29.86F
JOLIET*        PTCLDY    55  38  51 E12       29.84F
WAUKEGAN       PTCLDY    44  33  65 NE7       29.89F
6HR MIN TEMP:  43; 6HR MAX TEMP:  47;

DUPAGE AIRPORT FAIR      52  34  50 E7        29.85F
6HR MIN TEMP:  51; 6HR MAX TEMP:  55;

KANKAKEE*      PTCLDY    52  40  61 E12       29.83F
WHEELING       PTCLDY    48  34  58 E6        29.88F
6HR MIN TEMP:  47; 6HR MAX TEMP:  52;

MORRIS*        CLEAR     54  37  52 E14       29.80F
ROMEOVILLE*    PTCLDY    53  35  49 E9        29.84F
NORTHERLY ISL    N/A     50  37  61 NE5         N/A
$$

LMZ740>746-191300-
SOUTHERN LAKE MICHIGAN

STATION/POSITION SKY/WX   TEMP    WIND        PRES    VSBY  WAVE
                          AIR SEA DIR/SP/G                  HT/PER
                          (F)     (DEG/KT/KT) (MB)    (MI)  (FT/S)
HARRISON CRIB              48      90/  6/  7   N/A
BURNHAM HARBOR             49      30/  4/  6   N/A
CALUMET HARBOR             52      90/  6/ 10   N/A
BURNS HARBOR               55     120/ 15/ 22 1011.5F
MICHIGAN CITY              54      90/ 14/ 18   N/A
MICHIGAN CITY 6N           52 45  120/ 12/ 17   N/A           3/ 6
$$

ILZ025>027-034>036-040-047-049-050-058-095>099-191300-
WEST-CENTRAL ILLINOIS

CITY           SKY/WX    TMP DP  RH WIND       PRES   REMARKS
QUINCY         MOCLDY    54  50  86 NE7       29.72S
GALESBURG*     MOCLDY    55  46  71 E7        29.75F
MACOMB*        PTCLDY    52  47  84 NE5       29.76F
JACKSONVILLE*  PTCLDY    54  48  81 E8        29.72F
PITTSFIELD*    PTCLDY    58  49  71 CALM      29.72F
$$

ILZ028>032-037-038-041>044-048-051>054-059>061-191300-
CENTRAL ILLINOIS

CITY           SKY/WX    TMP DP  RH WIND       PRES   REMARKS
PONTIAC        PTCLDY    53  41  65 E14       29.81S
BLOOMINGTON    PTCLDY    55  48  77 E10       29.79S
DECATUR        MOCLDY    57  51  80 E6        29.75F
PEORIA         PTCLDY    58  48  69 E13       29.76S
6HR MIN TEMP:  57; 6HR MAX TEMP:  60;

LACON*         MOCLDY    53  41  64 E7        29.78S
LINCOLN*       PTCLDY    58  51  77 E7        29.73F
SPRINGFIELD    CLEAR     57  48  72 E5        29.73F
6HR MIN TEMP:  55; 6HR MAX TEMP:  64;

TAYLORVILLE    PTCLDY    57  48  72 E8        29.73F
$$

ILZ033-039-045-046-055>057-062-063-191300-
EAST-CENTRAL ILLINOIS

CITY           SKY/WX    TMP DP  RH WIND       PRES   REMARKS
CHAMPAIGN      CLOUDY    57  48  72 E13       29.76F
DANVILLE*      CLOUDY    54  44  69 E8        29.77F
RANTOUL*       CLOUDY    58  46  66 E13       29.78F
MATTOON        CLOUDY    62  47  57 E7        29.74S
PARIS*         LGT RAIN  59  52  78 NE5       29.77F
$$

ILZ079-100>102-191300-
SOUTHWEST ILLINOIS

CITY           SKY/WX    TMP DP  RH WIND       PRES   REMARKS
ALTON          CLOUDY    61  50  67 E7        29.71F
BELLEVILLE     DRIZZLE   61  59  94 NE1       29.68F
CAHOKIA*       LGT RAIN  63  55  75 SE3       29.69F
SPARTA*        LGT RAIN  60  59  97 E5        29.70F
$$

ILZ064>066-069>071-074>076-080>082-084>086-088>090-092>094-191300-
SOUTH-CENTRAL ILLINOIS

CITY           SKY/WX    TMP DP  RH WIND       PRES   REMARKS
CARBONDALE     RAIN      61  59  93 E7        29.69F FOG
6HR MIN TEMP:  61; 6HR MAX TEMP:  66; 6HR PCP:  0.20;

CAIRO*         DRIZZLE   64  64 100 E3        29.67S
EFFINGHAM*     LGT RAIN  60  50  69 E8        29.75F
MARION         LGT RAIN  63  61  94 NE7       29.70S
MT. VERNON     CLOUDY    57  52  82 NE7       29.71F
CENTRALIA*     LGT RAIN  57  55  92 E6        29.71F
SALEM*         LGT RAIN  60  55  85 E5        29.71F
METROPOLIS*    DRIZZLE   63  63 100 CALM      29.67F
$$

ILZ067-068-072-073-078-083-087-091-191300-
SOUTHEAST ILLINOIS

CITY           SKY/WX    TMP DP  RH WIND       PRES   REMARKS
LAWRENCEVILLE  LGT RAIN  57  52  83 NE7       29.74F
FLORA*         LGT RAIN  57  54  88 NE3       29.73F
FAIRFIELD*     RAIN      57  56  96 N6        29.71F
HARRISBURG*    HVY RAIN  60  60  99 E6        29.71S
ROBINSON*      LGT RAIN  59  54  85 CALM      29.75F
CARMI*         LGT RAIN  59  55  85 NE5       29.70F
$$

ABBREVIATIONS USED IN REMARKS
   TC - TEMPERATURE IN CELSIUS
  WCI - WIND CHILL INDEX
   HX - HEAT INDEX
  VSB - VISIBILITY
$$



USA.gov is the U.S. government's official web portal to all federal, state and local government web resources and services.